Regional Weather Roundup
Issued by NWS Cleveland, OH

Home | Current Version | Previous Version | Text Only | Print | Product List | Glossary Off
Versions: 1 2 3 4 5 6 7 8 9 10 11 12 13 14 15 16 17 18 19 20 21 22 23 24 25 26 27 28 29 30 31 32 33 34 35 36 37 38 39 40 41 42 43 44 45 46 47 48 49 50

000
ASUS41 KCLE 021402
RWRCLE
OHIO REGIONAL WEATHER ROUNDUP
NATIONAL WEATHER SERVICE CLEVELAND, OH
900 AM EST MON MAR 02 2015

NOTE: "FAIR" INDICATES FEW OR NO CLOUDS BELOW 12,000 FEET WITH NO
SIGNIFICANT WEATHER AND/OR OBSTRUCTIONS TO VISIBILITY.

OHZ001>008-015>018-024>027-034-035-043-044-021500-
   NORTHWEST OHIO

CITY           SKY/WX    TMP DP  RH WIND       PRES   REMARKS
DEFIANCE       MOSUNNY   13   8  81 VRB5      30.47R HAZE    WCI   5
FINDLAY        MOSUNNY   14   9  80 W13       30.46R HAZE    WCI   0
TOLEDO EXPRESS MOSUNNY   17  11  77 W12       30.45R WCI   4
TOLEDO EXEC    SUNNY     14   9  80 SW9       30.46R HAZE    WCI   2
LIMA           MOSUNNY   14   9  80 SW7       30.46R HAZE    WCI   4
$$

OHZ009>014-019>023-028>033-038-089-021500-
   NORTHEAST OHIO

CITY           SKY/WX    TMP DP  RH WIND       PRES   REMARKS
CLE-HOPKINS    LGT SNOW  21  15  78 SW9       30.44R WCI  11
CLE-LAKEFRONT  SUNNY     19  13  77 W13       30.41R WCI   6
CUY CO. ARPT   MOSUNNY   25  18  74 W12G21    30.39R WCI  14
LORAIN-ELYRIA  MOSUNNY   19  14  81 W9        30.42R WCI   8
ASHTABULA      CLOUDY    22  13  68 W13       30.36R WCI  10
AKRON-CANTON   PTSUNNY   21  15  78 W10       30.38R WCI  10
WOOSTER        SUNNY     19  13  77 W9        30.41R WCI   8
MANSFIELD      SUNNY     18  13  80 W9        30.41R WCI   7
YOUNGSTOWN     LGT SNOW  21  17  84 W12       30.35S WCI   9
$$

OHZ042-051>053-060>062-070>072-077>081-021500-
  SOUTHWEST OHIO

CITY           SKY/WX    TMP DP  RH WIND       PRES   REMARKS
CINC-COVINGTON PTSUNNY   23  14  68 N5        30.50R WCI  17
CINC-LUNKEN    MOSUNNY   24  15  68 N3        30.54R
HAMILTON       MOSUNNY   22  14  71 CALM      30.54R
DAYTON         PTSUNNY   17  12  80 W3        30.49R HAZE
WRIGHT-PAT AFB CLOUDY    19  12  76 NW2       30.50R
DAYTON GENERAL MOSUNNY   20  13  74 N6        30.48R WCI  12
WILMINGTON     MOSUNNY   20  13  74 NW5       30.48R WCI  13
$$

OHZ036-037-039>041-045>050-054>059-063>069-073>076-082>088-021500-
  CENTRAL AND SOUTHEAST OHIO

CITY           SKY/WX    TMP DP  RH WIND       PRES   REMARKS
COLUMBUS       CLOUDY    19  13  77 W6        30.48R HAZE    WCI  11
OSU AIRPORT    PTSUNNY   18  12  77 W8        30.47R HAZE    WCI   8
BOLTON FIELD   SUNNY     18  14  86 W6        30.48R WCI   9
RICKENBACK AFB PTSUNNY   19  14  79 W5        30.49R WCI  13
NEWARK         PTSUNNY   20  13  74 W7        30.46R WCI  11
MARION         MOSUNNY   16  11  80 W9        30.45R HAZE    WCI   4
LANCASTER      PTSUNNY   21  16  81 SW7       30.48R HAZE    WCI  12
ZANESVILLE     PTSUNNY   22  14  71 W8        30.46R WCI  12
NEW PHILLY     CLOUDY    24  15  68 W7        30.44R HAZE    WCI  16
$$


USA.gov is the U.S. government's official web portal to all federal, state and local government web resources and services.